Hourly Data Report for September 16, 2016

SHEARWATER RCS
NOVA SCOTIA

44°37'47.000" N
63°30'48.000" W
24.00 m
8205092
71264
AAW

Download Data

Hourly Data (September 2016)
Hourly Data Report for September 16, 2016
TIME Temp Definition
°C
Dew Point Definition
°C
Rel Hum Definition
%
Wind Dir Definition
10's deg

Wind Spd Definition
km/h
Visibility Definition
km
Stn Press Definition
kPa
Hmdx Definition


Wind Chill Definition


Weather Definition


00:00 9.2 6.6 84 32 8   102.28     LegendNANA
01:00 8.1 5.9 87 32 4   102.29     LegendNANA
02:00 7.9 5.9 87 33 4   102.30     LegendNANA
03:00 7.3 5.6 89 33 5   102.32     LegendNANA
04:00 8.1 6.9 92 32 7   102.36     LegendNANA
05:00 7.1 5.5 89 30 3   102.38     LegendNANA
06:00 7.1 5.8 92 32 4   102.42     LegendNANA
07:00 10.2 8.9 91 32 1   102.42     LegendNANA
08:00 12.3 8.6 78 20 2   102.43     LegendNANA
09:00 15.0 8.3 64 18 4   102.49     LegendNANA
10:00 16.7 6.8 52 23 6   102.54     LegendNANA
11:00 18.0 6.4 47 17 6   102.50     LegendNANA
12:00 18.4 7.1 48 15 12   102.47     LegendNANA
13:00 19.6 4.8 38 22 14   102.42     LegendNANA
14:00 19.0 5.7 42 19 18   102.37     LegendNANA
15:00 18.1 6.6 47 18 18   102.35     LegendNANA
16:00 17.4 6.7 49 18 18   102.33     LegendNANA
17:00 16.6 5.3 47 19 16   102.33     LegendNANA
18:00 15.3 7.4 59 20 10   102.34     LegendNANA
19:00 13.9 8.2 69 18 8   102.33     LegendNANA
20:00 14.0 8.8 71 19 8   102.37     LegendNANA
21:00 14.0 9.5 74 22 17   102.36     LegendNANA
22:00 13.8 9.8 77 22 15   102.38     LegendNANA
23:00 13.3 8.1 71 23 13   102.41     LegendNANA

Notes on Data Quality.

Legend

  • E = Estimated
  • M = Missing
  • NA = Not Available*
  • [empty] = Indicates an unobserved value
Date modified: